| time (UTC) | temp C | wind direction | speed KPH | gust KPH | rain 1hr cm | rain 24hr cm | rain mn cm | humidity % | barometer mb |
| 20260509143135 | 10 | 292 | 0.0 | 0.0 | 0.00 | 0.08 | 0.08 | 97 | 1013.2 |
| 20260509141552 | 9 | 292 | 0.0 | 0.0 | 0.00 | 0.08 | 0.08 | 97 | 1013.1 |
| 20260509140010 | 8 | 293 | 0.0 | 0.0 | 0.00 | 0.08 | 0.08 | 97 | 1013.4 |
| 20260509134554 | 8 | 292 | 0.0 | 0.0 | 0.00 | 0.08 | 0.08 | 97 | 1013.5 |
| 20260509133058 | 7 | 292 | 0.0 | 0.0 | 0.03 | 0.08 | 0.08 | 97 | 1013.7 |
| 20260509131543 | 7 | 292 | 0.0 | 0.0 | 0.03 | 0.08 | 0.08 | 97 | 1013.9 |
| 20260509130039 | 6 | 292 | 0.0 | 0.0 | 0.03 | 0.08 | 0.08 | 96 | 1013.9 |
| 20260509124535 | 6 | 292 | 0.0 | 0.0 | 0.03 | 0.08 | 0.08 | 96 | 1014.0 |
| 20260509123034 | 5 | 292 | 0.0 | 0.0 | 0.00 | 0.05 | 0.05 | 96 | 1013.8 |
| 20260509121537 | 5 | 292 | 0.0 | 0.0 | 0.05 | 0.05 | 0.05 | 96 | 1013.9 |
| 20260509120034 | 5 | 292 | 0.0 | 0.0 | 0.05 | 0.05 | 0.05 | 96 | 1013.9 |
| 20260509114527 | 5 | 293 | 0.0 | 0.0 | 0.05 | 0.05 | 0.05 | 95 | 1014.0 |
| 20260509113027 | 4 | 292 | 0.0 | 0.0 | 0.05 | 0.05 | 0.05 | 95 | 1014.4 |
| 20260509111526 | 3 | 292 | 0.0 | 0.0 | 0.00 | 0.00 | 0.00 | 95 | 1014.6 |
| 20260509110025 | 3 | 292 | 0.0 | 0.0 | 0.00 | 0.00 | 0.00 | 94 | 1014.6 |
| 20260509104523 | 3 | 292 | 0.0 | 0.0 | 0.00 | 0.00 | 0.00 | 94 | 1014.4 |
| 20260509103022 | 3 | 292 | 0.0 | 0.0 | 0.00 | 0.00 | 0.00 | 94 | 1014.4 |
| 20260509101520 | 2 | 292 | 0.0 | 0.0 | 0.00 | 0.00 | 0.00 | 94 | 1013.7 |
| 20260509100017 | 2 | 292 | 0.0 | 0.0 | 0.00 | 0.00 | 0.00 | 93 | 1013.4 |
| 20260509094516 | 2 | 292 | 0.0 | 0.0 | 0.00 | 0.00 | 0.00 | 93 | 1013.1 |
| 20260509093016 | 2 | 292 | 0.0 | 0.0 | 0.00 | 0.00 | 0.00 | 93 | 1012.9 |
| 20260509091525 | 1 | 292 | 0.0 | 0.0 | 0.00 | 0.00 | 0.00 | 93 | 1012.9 |
| 20260509090013 | 1 | 292 | 0.0 | 0.0 | 0.00 | 0.00 | 0.00 | 92 | 1013.1 |
| 20260509084519 | 1 | 292 | 0.0 | 0.0 | 0.00 | 0.00 | 0.00 | 92 | 1013.0 |
| 20260509083011 | 1 | 292 | 0.0 | 0.0 | 0.00 | 0.00 | 0.00 | 91 | 1012.9 |
| 20260509081511 | 1 | 292 | 0.0 | 0.0 | 0.00 | 0.00 | 0.00 | 91 | 1013.2 |
| 20260509080020 | 2 | 292 | 0.0 | 0.0 | 0.00 | 0.00 | 0.00 | 91 | 1013.3 |
| 20260509074508 | 2 | 292 | 0.0 | 0.0 | 0.00 | 0.00 | 0.00 | 91 | 1013.2 |
| 20260509073016 | 2 | 292 | 0.0 | 0.0 | 0.00 | 0.00 | 0.00 | 91 | 1013.3 |
| 20260509071505 | 2 | 292 | 0.0 | 0.0 | 0.00 | 0.00 | 0.00 | 90 | 1013.2 |
| 20260509070004 | 2 | 292 | 0.0 | 0.0 | 0.00 | 0.00 | 0.00 | 90 | 1013.3 |
| 20260509064503 | 2 | 292 | 0.0 | 0.0 | 0.00 | 0.00 | 0.00 | 90 | 1013.3 |
| 20260509063002 | 2 | 292 | 0.0 | 0.0 | 0.00 | 0.00 | 0.00 | 89 | 1013.3 |
| 20260509061501 | 2 | 292 | 0.0 | 0.0 | 0.00 | 0.00 | 0.00 | 88 | 1013.3 |
| 20260509060058 | 2 | 292 | 0.0 | 0.0 | 0.00 | 0.00 | 0.00 | 88 | 1013.1 |
| 20260509054603 | 2 | 292 | 0.0 | 0.0 | 0.00 | 0.00 | 0.00 | 87 | 1012.9 |
| 20260509053055 | 3 | 292 | 0.0 | 0.0 | 0.00 | 0.00 | 0.00 | 87 | 1013.0 |
| 20260509051559 | 3 | 292 | 0.0 | 0.0 | 0.00 | 0.00 | 0.00 | 87 | 1013.0 |
| 20260509050053 | 3 | 292 | 0.0 | 0.0 | 0.00 | 0.00 | 0.00 | 86 | 1013.1 |
| 20260509044551 | 3 | 292 | 0.0 | 0.0 | 0.00 | 0.00 | 0.00 | 86 | 1013.0 |
| 20260509043054 | 4 | 292 | 0.0 | 0.0 | 0.00 | 0.00 | 0.00 | 85 | 1013.1 |
| 20260509041544 | 4 | 292 | 0.0 | 0.0 | 0.00 | 0.00 | 0.00 | 84 | 1012.9 |
| 20260509040045 | 5 | 292 | 0.0 | 0.0 | 0.00 | 0.00 | 0.00 | 82 | 1012.6 |
| 20260509034540 | 5 | 292 | 0.0 | 0.0 | 0.00 | 0.00 | 0.00 | 81 | 1012.5 |
| 20260509033041 | 5 | 292 | 0.0 | 0.0 | 0.00 | 0.00 | 0.00 | 80 | 1012.5 |
| 20260509031539 | 6 | 292 | 0.0 | 0.0 | 0.00 | 0.00 | 0.00 | 79 | 1012.6 |
| 20260509030041 | 6 | 292 | 0.0 | 0.0 | 0.00 | 0.00 | 0.00 | 77 | 1012.5 |
| 20260509024537 | 6 | 292 | 0.0 | 0.0 | 0.00 | 0.00 | 0.00 | 75 | 1012.4 |
| 20260509023035 | 7 | 292 | 0.0 | 0.0 | 0.00 | 0.00 | 0.00 | 74 | 1012.3 |
| 20260509021535 | 7 | 292 | 0.0 | 0.0 | 0.00 | 0.00 | 0.00 | 71 | 1012.2 |
| 20260509020033 | 8 | 292 | 0.0 | 0.0 | 0.00 | 0.00 | 0.00 | 69 | 1012.1 |
| 20260509014533 | 8 | 292 | 0.0 | 0.0 | 0.00 | 0.00 | 0.00 | 66 | 1011.9 |
| 20260509013044 | 9 | 292 | 0.0 | 0.0 | 0.00 | 0.00 | 0.00 | 65 | 1011.5 |
| 20260509011526 | 10 | 292 | 0.0 | 0.0 | 0.00 | 0.00 | 0.00 | 63 | 1011.2 |
| 20260509010025 | 10 | 292 | 0.0 | 0.0 | 0.00 | 0.00 | 0.00 | 62 | 1010.9 |
| 20260509004536 | 10 | 292 | 0.0 | 0.0 | 0.00 | 0.00 | 0.00 | 55 | 1010.8 |
| 20260509003022 | 11 | 292 | 0.0 | 0.0 | 0.00 | 0.00 | 0.00 | 53 | 1010.4 |
| 20260509001517 | 11 | 292 | 0.0 | 0.0 | 0.00 | 0.00 | 0.00 | 52 | 1010.1 |
| 20260509000015 | 11 | 292 | 0.0 | 0.0 | 0.00 | 0.00 | 0.00 | 51 | 1009.8 |
| 20260508234511 | 12 | 293 | 0.0 | 0.0 | 0.00 | 0.00 | 0.00 | 50 | 1009.4 |
| 20260508233012 | 12 | 293 | 0.0 | 0.0 | 0.00 | 0.00 | 0.00 | 50 | 1009.3 |
| 20260508231510 | 12 | 131 | 0.0 | 0.0 | 0.00 | 0.00 | 0.00 | 48 | 1009.1 |
| 20260508230032 | 12 | 312 | 0.0 | 0.0 | 0.00 | 0.00 | 0.00 | 46 | 1009.1 |
| 20260508224509 | 13 | 236 | 0.0 | 0.0 | 0.00 | 0.00 | 0.00 | 47 | 1008.9 |
| 20260508223016 | 13 | 238 | 0.0 | 0.0 | 0.00 | 0.00 | 0.00 | 46 | 1008.9 |
| 20260508221508 | 13 | 277 | 0.0 | 0.0 | 0.00 | 0.00 | 0.00 | 46 | 1008.7 |
| 20260508220014 | 13 | 255 | 0.0 | 0.0 | 0.00 | 0.00 | 0.00 | 48 | 1008.8 |
| 20260508214508 | 13 | 212 | 0.0 | 0.0 | 0.00 | 0.00 | 0.00 | 48 | 1008.6 |
| 20260508213007 | 14 | 310 | 0.0 | 0.0 | 0.00 | 0.00 | 0.00 | 47 | 1008.5 |
| 20260508211509 | 14 | 238 | 0.0 | 0.0 | 0.00 | 0.00 | 0.00 | 47 | 1008.5 |
| 20260508210007 | 14 | 300 | 0.0 | 0.0 | 0.00 | 0.00 | 0.00 | 47 | 1008.6 |
| 20260508204506 | 13 | 308 | 0.0 | 0.0 | 0.00 | 0.00 | 0.00 | 48 | 1008.6 |
| 20260508203006 | 13 | 90 | 0.0 | 0.0 | 0.00 | 0.00 | 0.00 | 47 | 1008.4 |
| 20260508201504 | 14 | 283 | 0.0 | 0.0 | 0.00 | 0.00 | 0.00 | 46 | 1008.4 |
| 20260508200004 | 14 | 300 | 0.0 | 0.0 | 0.00 | 0.00 | 0.00 | 43 | 1008.0 |
| 20260508194504 | 15 | 68 | 0.0 | 0.0 | 0.00 | 0.00 | 0.00 | 42 | 1007.9 |
| 20260508193003 | 15 | 225 | 0.0 | 0.0 | 0.00 | 0.00 | 0.00 | 39 | 1007.6 |
| 20260508191505 | 15 | 338 | 0.0 | 0.0 | 0.00 | 0.00 | 0.00 | 38 | 1007.6 |
| 20260508190002 | 16 | 322 | 0.0 | 0.0 | 0.00 | 0.00 | 0.00 | 37 | 1007.6 |
| 20260508184501 | 15 | 221 | 0.0 | 0.0 | 0.00 | 0.00 | 0.00 | 39 | 1007.5 |
| 20260508183003 | 15 | 264 | 0.0 | 0.0 | 0.00 | 0.00 | 0.00 | 40 | 1007.5 |
| 20260508181608 | 16 | 304 | 0.0 | 0.0 | 0.00 | 0.00 | 0.00 | 38 | 1007.5 |
| 20260508180100 | 16 | 290 | 0.0 | 0.0 | 0.00 | 0.00 | 0.00 | 38 | 1007.5 |
| 20260508174600 | 16 | 207 | 0.0 | 0.0 | 0.00 | 0.00 | 0.00 | 36 | 1007.5 |
| 20260508173058 | 16 | 279 | 0.0 | 0.0 | 0.00 | 0.00 | 0.00 | 36 | 1007.6 |
| 20260508171556 | 16 | 202 | 0.0 | 0.0 | 0.00 | 0.00 | 0.00 | 37 | 1007.7 |
| 20260508170058 | 16 | 232 | 0.0 | 0.0 | 0.00 | 0.00 | 0.00 | 37 | 1007.8 |
| 20260508164602 | 16 | 171 | 0.0 | 0.0 | 0.00 | 0.00 | 0.00 | 39 | 1007.8 |
| 20260508163051 | 15 | 260 | 0.0 | 0.0 | 0.00 | 0.00 | 0.00 | 40 | 1007.9 |
| 20260508161551 | 15 | 237 | 0.0 | 0.0 | 0.00 | 0.00 | 0.00 | 41 | 1007.9 |
| 20260508160048 | 15 | 233 | 0.0 | 0.0 | 0.00 | 0.00 | 0.00 | 40 | 1008.1 |
| 20260508154546 | 14 | 307 | 0.0 | 0.0 | 0.00 | 0.00 | 0.00 | 41 | 1008.3 |
| 20260508153043 | 14 | 222 | 0.0 | 0.0 | 0.00 | 0.00 | 0.00 | 41 | 1008.5 |
| 20260508151541 | 13 | 310 | 0.0 | 0.0 | 0.00 | 0.00 | 0.00 | 41 | 1008.6 |
| 20260508150042 | 13 | 299 | 0.0 | 0.0 | 0.00 | 0.00 | 0.00 | 40 | 1008.6 |
| 20260508144555 | 13 | 313 | 0.0 | 0.0 | 0.00 | 0.00 | 0.00 | 41 | 1008.6 |